| time (UTC) | temp C | wind direction | speed KPH | gust KPH | rain 1hr cm | rain 24hr cm | rain mn cm | humidity % | barometer mb |
| 20260509104943 | 6 | 136 | 3.2 | 9.7 | 0.00 | 0.08 | 0.00 | 84 | 1007.6 |
| 20260509104442 | 6 | 130 | 3.2 | 8.0 | 0.00 | 0.08 | 0.00 | 85 | 1007.7 |
| 20260509103939 | 6 | 151 | 3.2 | 8.0 | 0.00 | 0.08 | 0.00 | 85 | 1007.6 |
| 20260509103438 | 6 | 107 | 3.2 | 4.8 | 0.00 | 0.08 | 0.00 | 86 | 1007.6 |
| 20260509103202 | 6 | 148 | 3.2 | 6.4 | 0.00 | 0.08 | 0.00 | 86 | 1007.6 |
| 20260509102439 | 6 | 140 | 3.2 | 6.4 | 0.00 | 0.08 | 0.00 | 86 | 1007.5 |
| 20260509101940 | 6 | 122 | 3.2 | 8.0 | 0.00 | 0.08 | 0.00 | 86 | 1007.5 |
| 20260509101441 | 5 | 120 | 3.2 | 8.0 | 0.00 | 0.08 | 0.00 | 87 | 1007.5 |
| 20260509100940 | 5 | 128 | 3.2 | 6.4 | 0.00 | 0.08 | 0.00 | 88 | 1007.5 |
| 20260509100658 | 5 | 132 | 3.2 | 4.8 | 0.00 | 0.08 | 0.00 | 89 | 1007.6 |
| 20260509095940 | 5 | 134 | 1.6 | 4.8 | 0.00 | 0.08 | 0.00 | 89 | 1007.6 |
| 20260509095440 | 5 | 146 | 1.6 | 6.4 | 0.00 | 0.08 | 0.00 | 88 | 1007.6 |
| 20260509094940 | 5 | 153 | 3.2 | 6.4 | 0.00 | 0.08 | 0.00 | 89 | 1007.6 |
| 20260509094441 | 5 | 192 | 3.2 | 6.4 | 0.00 | 0.08 | 0.00 | 89 | 1007.5 |
| 20260509093941 | 5 | 0 | 3.2 | 4.8 | 0.00 | 0.08 | 0.00 | 89 | 1007.5 |
| 20260509093438 | 5 | 129 | 3.2 | 4.8 | 0.00 | 0.08 | 0.00 | 89 | 1007.5 |
| 20260509092937 | 5 | 0 | 1.6 | 4.8 | 0.00 | 0.08 | 0.00 | 90 | 1007.5 |
| 20260509092435 | 5 | 139 | 3.2 | 4.8 | 0.00 | 0.08 | 0.00 | 90 | 1007.4 |
| 20260509091935 | 5 | 171 | 3.2 | 4.8 | 0.00 | 0.08 | 0.00 | 90 | 1007.4 |
| 20260509091435 | 5 | 148 | 3.2 | 6.4 | 0.00 | 0.08 | 0.00 | 90 | 1007.4 |
| 20260509090934 | 5 | 187 | 3.2 | 8.0 | 0.00 | 0.08 | 0.00 | 90 | 1007.4 |
| 20260509090435 | 5 | 165 | 3.2 | 8.0 | 0.00 | 0.08 | 0.00 | 90 | 1007.5 |
| 20260509085935 | 5 | 159 | 3.2 | 4.8 | 0.00 | 0.08 | 0.00 | 89 | 1007.6 |
| 20260509085435 | 5 | 189 | 3.2 | 4.8 | 0.00 | 0.08 | 0.00 | 89 | 1007.6 |
| 20260509085150 | 5 | 121 | 3.2 | 6.4 | 0.00 | 0.08 | 0.00 | 88 | 1007.5 |
| 20260509084433 | 5 | 148 | 3.2 | 6.4 | 0.00 | 0.08 | 0.00 | 87 | 1007.6 |
| 20260509083933 | 5 | 164 | 3.2 | 6.4 | 0.00 | 0.08 | 0.00 | 86 | 1007.7 |
| 20260509083433 | 5 | 150 | 3.2 | 4.8 | 0.00 | 0.08 | 0.00 | 86 | 1007.9 |
| 20260509082933 | 5 | 167 | 3.2 | 4.8 | 0.00 | 0.08 | 0.00 | 86 | 1008.0 |
| 20260509082433 | 5 | 135 | 1.6 | 3.2 | 0.00 | 0.08 | 0.00 | 85 | 1008.0 |
| 20260509081933 | 5 | 132 | 1.6 | 3.2 | 0.00 | 0.08 | 0.00 | 85 | 1008.0 |
| 20260509081433 | 5 | 157 | 1.6 | 4.8 | 0.00 | 0.08 | 0.00 | 84 | 1008.1 |
| 20260509080934 | 5 | 147 | 1.6 | 4.8 | 0.00 | 0.08 | 0.00 | 83 | 1008.1 |
| 20260509080434 | 5 | 143 | 1.6 | 3.2 | 0.00 | 0.08 | 0.00 | 83 | 1008.1 |
| 20260509075933 | 5 | 138 | 1.6 | 3.2 | 0.00 | 0.08 | 0.00 | 82 | 1008.2 |
| 20260509075432 | 5 | 105 | 0.0 | 3.2 | 0.00 | 0.08 | 0.00 | 82 | 1008.2 |
| 20260509074934 | 5 | 137 | 0.0 | 1.6 | 0.00 | 0.08 | 0.00 | 81 | 1008.2 |
| 20260509074434 | 5 | 136 | 0.0 | 1.6 | 0.00 | 0.08 | 0.00 | 80 | 1008.2 |
| 20260509073933 | 5 | 144 | 0.0 | 1.6 | 0.00 | 0.08 | 0.00 | 79 | 1008.3 |
| 20260509073740 | 5 | 199 | 0.0 | 3.2 | 0.00 | 0.08 | 0.00 | 79 | 1008.3 |
| 20260509073711 | 5 | 187 | 1.6 | 3.2 | 0.00 | 0.08 | 0.00 | 78 | 1008.3 |
| 20260509072432 | 5 | 0 | 0.0 | 3.2 | 0.00 | 0.08 | 0.00 | 78 | 1008.3 |
| 20260509071929 | 5 | 0 | 1.6 | 3.2 | 0.00 | 0.08 | 0.00 | 78 | 1008.3 |
| 20260509071425 | 5 | 150 | 1.6 | 3.2 | 0.00 | 0.08 | 0.00 | 78 | 1008.4 |
| 20260509070928 | 5 | 163 | 0.0 | 3.2 | 0.00 | 0.08 | 0.00 | 79 | 1008.4 |
| 20260509070429 | 5 | 0 | 0.0 | 3.2 | 0.00 | 0.08 | 0.00 | 79 | 1008.5 |
| 20260509070420 | 5 | 131 | 0.0 | 3.2 | 0.00 | 0.08 | 0.00 | 78 | 1008.5 |
| 20260509065427 | 5 | 111 | 0.0 | 3.2 | 0.00 | 0.08 | 0.00 | 77 | 1008.5 |
| 20260509064927 | 5 | 131 | 1.6 | 3.2 | 0.00 | 0.08 | 0.00 | 77 | 1008.5 |
| 20260509064426 | 5 | 131 | 1.6 | 3.2 | 0.00 | 0.08 | 0.00 | 76 | 1008.6 |
| 20260509063924 | 5 | 171 | 1.6 | 3.2 | 0.00 | 0.08 | 0.00 | 76 | 1008.6 |
| 20260509063424 | 5 | 134 | 1.6 | 4.8 | 0.00 | 0.08 | 0.00 | 76 | 1008.7 |
| 20260509062924 | 5 | 152 | 1.6 | 4.8 | 0.00 | 0.08 | 0.00 | 77 | 1008.8 |
| 20260509062426 | 5 | 133 | 1.6 | 3.2 | 0.00 | 0.08 | 0.00 | 79 | 1008.8 |
| 20260509061925 | 4 | 161 | 1.6 | 3.2 | 0.00 | 0.08 | 0.00 | 82 | 1008.8 |
| 20260509061644 | 4 | 141 | 1.6 | 3.2 | 0.00 | 0.08 | 0.00 | 84 | 1008.9 |
| 20260509060926 | 4 | 0 | 0.0 | 3.2 | 0.00 | 0.08 | 0.00 | 86 | 1009.0 |
| 20260509060425 | 3 | 225 | 0.0 | 3.2 | 0.00 | 0.08 | 0.00 | 86 | 1009.0 |
| 20260509055927 | 3 | 109 | 1.6 | 4.8 | 0.00 | 0.08 | 0.00 | 88 | 1009.0 |
| 20260509055426 | 3 | 0 | 1.6 | 4.8 | 0.00 | 0.08 | 0.00 | 90 | 1009.1 |
| 20260509054923 | 3 | 143 | 1.6 | 4.8 | 0.00 | 0.08 | 0.00 | 93 | 1009.2 |
| 20260509054423 | 2 | 0 | 3.2 | 6.4 | 0.00 | 0.08 | 0.00 | 93 | 1009.3 |
| 20260509053920 | 3 | 128 | 1.6 | 6.4 | 0.00 | 0.08 | 0.00 | 93 | 1009.3 |
| 20260509053643 | 2 | 301 | 1.6 | 6.4 | 0.00 | 0.08 | 0.00 | 94 | 1009.4 |
| 20260509052917 | 2 | 187 | 3.2 | 6.4 | 0.00 | 0.08 | 0.00 | 94 | 1009.4 |
| 20260509052418 | 2 | 150 | 3.2 | 8.0 | 0.00 | 0.08 | 0.00 | 94 | 1009.6 |
| 20260509051918 | 2 | 136 | 3.2 | 8.0 | 0.00 | 0.08 | 0.00 | 95 | 1009.6 |
| 20260509051640 | 2 | 143 | 3.2 | 6.4 | 0.00 | 0.08 | 0.00 | 94 | 1009.7 |
| 20260509050917 | 2 | 124 | 3.2 | 6.4 | 0.00 | 0.08 | 0.00 | 94 | 1009.7 |
| 20260509050418 | 2 | 157 | 3.2 | 6.4 | 0.00 | 0.08 | 0.00 | 94 | 1009.7 |
| 20260509045918 | 2 | 141 | 1.6 | 6.4 | 0.00 | 0.08 | 0.00 | 94 | 1009.7 |
| 20260509045417 | 2 | 0 | 1.6 | 6.4 | 0.00 | 0.08 | 0.00 | 94 | 1009.8 |
| 20260509044916 | 3 | 152 | 1.6 | 4.8 | 0.00 | 0.08 | 0.00 | 93 | 1009.8 |
| 20260509044415 | 3 | 153 | 0.0 | 4.8 | 0.00 | 0.08 | 0.00 | 93 | 1009.9 |
| 20260509043915 | 3 | 0 | 0.0 | 4.8 | 0.00 | 0.08 | 0.00 | 94 | 1010.0 |
| 20260509043413 | 3 | 274 | 0.0 | 4.8 | 0.00 | 0.13 | 0.00 | 94 | 1010.0 |
| 20260509042912 | 3 | 304 | 0.0 | 1.6 | 0.00 | 0.15 | 0.00 | 93 | 1009.9 |
| 20260509042412 | 3 | 0 | 0.0 | 3.2 | 0.00 | 0.15 | 0.00 | 93 | 1009.9 |
| 20260509041912 | 3 | 0 | 0.0 | 3.2 | 0.00 | 0.15 | 0.00 | 92 | 1009.8 |
| 20260509041412 | 3 | 0 | 0.0 | 6.4 | 0.00 | 0.15 | 0.00 | 91 | 1009.8 |
| 20260509040911 | 3 | 0 | 0.0 | 6.4 | 0.00 | 0.15 | 0.00 | 91 | 1009.9 |
| 20260509040412 | 3 | 0 | 0.0 | 1.6 | 0.00 | 0.15 | 0.00 | 91 | 1009.9 |
| 20260509035911 | 3 | 0 | 0.0 | 1.6 | 0.00 | 0.15 | 0.15 | 90 | 1010.0 |
| 20260509035412 | 3 | 0 | 0.0 | 4.8 | 0.00 | 0.15 | 0.15 | 90 | 1010.0 |
| 20260509034911 | 3 | 310 | 1.6 | 4.8 | 0.00 | 0.15 | 0.15 | 91 | 1010.0 |
| 20260509034411 | 3 | 304 | 0.0 | 3.2 | 0.00 | 0.15 | 0.15 | 90 | 1010.0 |
| 20260509033911 | 3 | 323 | 0.0 | 3.2 | 0.00 | 0.15 | 0.15 | 89 | 1009.9 |
| 20260509033411 | 3 | 144 | 0.0 | 3.2 | 0.00 | 0.15 | 0.15 | 89 | 1009.9 |
| 20260509032910 | 3 | 0 | 0.0 | 1.6 | 0.00 | 0.15 | 0.15 | 89 | 1010.0 |
| 20260509032410 | 3 | 0 | 0.0 | 1.6 | 0.00 | 0.15 | 0.15 | 89 | 1010.0 |
| 20260509031908 | 3 | 12 | 0.0 | 1.6 | 0.00 | 0.15 | 0.15 | 88 | 1010.0 |
| 20260509031408 | 4 | 0 | 0.0 | 3.2 | 0.00 | 0.15 | 0.15 | 87 | 1010.0 |
| 20260509030908 | 4 | 345 | 0.0 | 3.2 | 0.00 | 0.15 | 0.15 | 87 | 1010.0 |
| 20260509030407 | 4 | 0 | 0.0 | 1.6 | 0.00 | 0.15 | 0.15 | 86 | 1010.0 |
| 20260509025906 | 5 | 0 | 0.0 | 1.6 | 0.00 | 0.15 | 0.15 | 85 | 1010.0 |
| 20260509025407 | 5 | 0 | 0.0 | 1.6 | 0.00 | 0.15 | 0.15 | 85 | 1010.0 |
| 20260509025129 | 5 | 0 | 0.0 | 1.6 | 0.00 | 0.15 | 0.15 | 84 | 1010.0 |
| 20260509024633 | 5 | 0 | 0.0 | 1.6 | 0.00 | 0.15 | 0.15 | 84 | 1010.0 |
| 20260509023907 | 5 | 137 | 0.0 | 1.6 | 0.00 | 0.15 | 0.15 | 83 | 1010.1 |
| 20260509023407 | 5 | 0 | 0.0 | 1.6 | 0.00 | 0.15 | 0.15 | 83 | 1010.1 |
| 20260509022910 | 5 | 0 | 0.0 | 3.2 | 0.00 | 0.15 | 0.15 | 83 | 1010.1 |
| 20260509022410 | 5 | 0 | 1.6 | 3.2 | 0.00 | 0.15 | 0.15 | 82 | 1010.1 |
| 20260509021909 | 5 | 0 | 1.6 | 3.2 | 0.00 | 0.15 | 0.15 | 82 | 1010.1 |
| 20260509021406 | 6 | 137 | 0.0 | 3.2 | 0.00 | 0.15 | 0.15 | 82 | 1010.1 |
| 20260509020906 | 6 | 131 | 0.0 | 1.6 | 0.00 | 0.15 | 0.15 | 82 | 1010.2 |
| 20260509020405 | 6 | 96 | 0.0 | 6.4 | 0.00 | 0.15 | 0.15 | 81 | 1010.2 |
| 20260509015905 | 6 | 0 | 0.0 | 6.4 | 0.00 | 0.15 | 0.15 | 79 | 1010.2 |
| 20260509015406 | 6 | 0 | 1.6 | 3.2 | 0.00 | 0.15 | 0.15 | 79 | 1010.2 |
| 20260509015139 | 7 | 197 | 1.6 | 6.4 | 0.00 | 0.15 | 0.15 | 78 | 1010.1 |
| 20260509014405 | 7 | 150 | 1.6 | 6.4 | 0.00 | 0.15 | 0.15 | 78 | 1010.1 |
| 20260509013903 | 7 | 130 | 1.6 | 3.2 | 0.00 | 0.15 | 0.15 | 75 | 1010.1 |
| 20260509013400 | 7 | 166 | 1.6 | 3.2 | 0.00 | 0.15 | 0.15 | 76 | 1010.1 |
| 20260509012901 | 7 | 0 | 0.0 | 1.6 | 0.00 | 0.15 | 0.15 | 76 | 1010.0 |
| 20260509012401 | 7 | 0 | 0.0 | 1.6 | 0.00 | 0.15 | 0.15 | 76 | 1010.0 |
| 20260509011856 | 8 | 0 | 0.0 | 1.6 | 0.00 | 0.15 | 0.15 | 74 | 1009.9 |
| 20260509011357 | 8 | 0 | 0.0 | 1.6 | 0.00 | 0.15 | 0.15 | 73 | 1009.8 |
| 20260509010857 | 8 | 274 | 0.0 | 0.0 | 0.00 | 0.15 | 0.15 | 72 | 1009.7 |
| 20260509010357 | 8 | 0 | 0.0 | 1.6 | 0.00 | 0.15 | 0.15 | 71 | 1009.6 |
| 20260509010050 | 9 | 105 | 0.0 | 3.2 | 0.00 | 0.15 | 0.15 | 70 | 1009.5 |
| 20260509005940 | 8 | 0 | 0.0 | 3.2 | 0.00 | 0.15 | 0.15 | 71 | 1009.5 |
| 20260509005102 | 9 | 143 | 0.0 | 1.6 | 0.00 | 0.15 | 0.15 | 66 | 1009.4 |
| 20260509004342 | 10 | 0 | 0.0 | 1.6 | 0.00 | 0.15 | 0.15 | 65 | 1009.3 |
| 20260509003842 | 10 | 0 | 0.0 | 3.2 | 0.00 | 0.15 | 0.15 | 64 | 1009.2 |
| 20260509003342 | 10 | 0 | 1.6 | 4.8 | 0.00 | 0.15 | 0.15 | 61 | 1009.2 |
| 20260509002841 | 11 | 102 | 3.2 | 4.8 | 0.00 | 0.15 | 0.15 | 59 | 1009.1 |
| 20260509002341 | 11 | 92 | 1.6 | 4.8 | 0.00 | 0.15 | 0.15 | 57 | 1009.1 |
| 20260509002100 | 11 | 127 | 1.6 | 3.2 | 0.00 | 0.15 | 0.15 | 57 | 1009.1 |
| 20260509001341 | 11 | 99 | 1.6 | 3.2 | 0.00 | 0.15 | 0.15 | 56 | 1009.1 |
| 20260509000842 | 11 | 112 | 1.6 | 8.0 | 0.00 | 0.15 | 0.15 | 55 | 1009.1 |
| 20260509000341 | 11 | 54 | 1.6 | 8.0 | 0.00 | 0.15 | 0.15 | 54 | 1009.1 |
| 20260509000103 | 12 | 35 | 1.6 | 4.8 | 0.00 | 0.15 | 0.15 | 52 | 1009.0 |
| 20260508235342 | 12 | 34 | 1.6 | 4.8 | 0.00 | 0.15 | 0.15 | 50 | 1009.0 |
| 20260508234841 | 12 | 0 | 1.6 | 4.8 | 0.00 | 0.15 | 0.15 | 49 | 1008.9 |
| 20260508234337 | 12 | 134 | 1.6 | 6.4 | 0.00 | 0.15 | 0.15 | 48 | 1008.8 |
| 20260508233834 | 12 | 43 | 3.2 | 6.4 | 0.00 | 0.15 | 0.15 | 47 | 1008.8 |
| 20260508233558 | 13 | 15 | 3.2 | 6.4 | 0.00 | 0.15 | 0.15 | 47 | 1008.7 |
| 20260508232833 | 13 | 15 | 3.2 | 9.7 | 0.00 | 0.15 | 0.15 | 46 | 1008.7 |
| 20260508232333 | 13 | 222 | 4.8 | 11.3 | 0.00 | 0.15 | 0.15 | 46 | 1008.7 |
| 20260508231833 | 13 | 19 | 3.2 | 11.3 | 0.00 | 0.15 | 0.15 | 45 | 1008.7 |
| 20260508231333 | 13 | 28 | 3.2 | 8.0 | 0.00 | 0.15 | 0.15 | 45 | 1008.7 |
| 20260508230833 | 13 | 42 | 4.8 | 11.3 | 0.00 | 0.15 | 0.15 | 44 | 1008.7 |
| 20260508230333 | 14 | 42 | 4.8 | 11.3 | 0.00 | 0.15 | 0.15 | 44 | 1008.7 |
| 20260508225834 | 14 | 5 | 3.2 | 9.7 | 0.00 | 0.15 | 0.15 | 43 | 1008.7 |
| 20260508225333 | 14 | 35 | 3.2 | 9.7 | 0.00 | 0.15 | 0.15 | 42 | 1008.7 |
| 20260508224834 | 14 | 78 | 3.2 | 11.3 | 0.00 | 0.15 | 0.15 | 43 | 1008.7 |
| 20260508224333 | 13 | 24 | 4.8 | 14.5 | 0.00 | 0.15 | 0.15 | 44 | 1008.7 |
| 20260508223834 | 13 | 38 | 6.4 | 14.5 | 0.00 | 0.15 | 0.15 | 44 | 1008.7 |
| 20260508223333 | 14 | 111 | 4.8 | 14.5 | 0.00 | 0.15 | 0.15 | 44 | 1008.6 |
| 20260508222833 | 14 | 35 | 4.8 | 9.7 | 0.00 | 0.15 | 0.15 | 42 | 1008.6 |
| 20260508222601 | 14 | 59 | 3.2 | 9.7 | 0.00 | 0.15 | 0.15 | 41 | 1008.6 |
| 20260508222059 | 13 | 24 | 3.2 | 9.7 | 0.00 | 0.15 | 0.15 | 39 | 1008.6 |
| 20260508221334 | 13 | 87 | 4.8 | 12.9 | 0.00 | 0.15 | 0.15 | 38 | 1008.6 |
| 20260508220833 | 13 | 282 | 4.8 | 12.9 | 0.00 | 0.15 | 0.15 | 40 | 1008.6 |
| 20260508220333 | 13 | 287 | 4.8 | 11.3 | 0.00 | 0.15 | 0.15 | 41 | 1008.7 |
| 20260508215833 | 13 | 255 | 6.4 | 14.5 | 0.00 | 0.15 | 0.15 | 39 | 1008.7 |
| 20260508215333 | 13 | 71 | 6.4 | 14.5 | 0.00 | 0.15 | 0.15 | 40 | 1008.7 |
| 20260508215100 | 13 | 272 | 8.0 | 19.3 | 0.00 | 0.15 | 0.15 | 39 | 1008.7 |
| 20260508214332 | 13 | 39 | 9.7 | 22.5 | 0.00 | 0.15 | 0.15 | 39 | 1008.8 |
| 20260508213832 | 13 | 284 | 8.0 | 22.5 | 0.00 | 0.15 | 0.15 | 40 | 1008.8 |
| 20260508213331 | 13 | 306 | 8.0 | 22.5 | 0.00 | 0.15 | 0.15 | 41 | 1008.9 |
| 20260508212832 | 12 | 311 | 8.0 | 17.7 | 0.00 | 0.15 | 0.15 | 42 | 1008.9 |
| 20260508212332 | 12 | 245 | 8.0 | 17.7 | 0.00 | 0.15 | 0.15 | 40 | 1009.0 |
| 20260508211832 | 12 | 276 | 8.0 | 16.1 | 0.00 | 0.15 | 0.15 | 41 | 1008.9 |
| 20260508211332 | 13 | 268 | 6.4 | 16.1 | 0.00 | 0.15 | 0.15 | 42 | 1008.9 |
| 20260508210833 | 13 | 341 | 4.8 | 16.1 | 0.00 | 0.15 | 0.15 | 41 | 1008.9 |
| 20260508210332 | 13 | 247 | 4.8 | 14.5 | 0.00 | 0.15 | 0.15 | 43 | 1009.0 |
| 20260508205832 | 12 | 108 | 4.8 | 14.5 | 0.00 | 0.15 | 0.15 | 44 | 1009.0 |
| 20260508205332 | 12 | 78 | 4.8 | 11.3 | 0.00 | 0.15 | 0.15 | 44 | 1009.1 |
| 20260508204832 | 12 | 31 | 4.8 | 14.5 | 0.00 | 0.15 | 0.15 | 45 | 1009.1 |
| 20260508204551 | 12 | 330 | 4.8 | 14.5 | 0.00 | 0.15 | 0.15 | 45 | 1009.2 |
| 20260508203829 | 12 | 324 | 6.4 | 14.5 | 0.00 | 0.15 | 0.15 | 45 | 1009.2 |
| 20260508203547 | 12 | 347 | 6.4 | 12.9 | 0.00 | 0.15 | 0.15 | 47 | 1009.3 |
| 20260508202829 | 12 | 17 | 6.4 | 12.9 | 0.00 | 0.15 | 0.15 | 46 | 1009.4 |
| 20260508202329 | 12 | 308 | 6.4 | 14.5 | 0.00 | 0.15 | 0.15 | 46 | 1009.5 |
| 20260508202309 | 12 | 298 | 8.0 | 14.5 | 0.00 | 0.15 | 0.15 | 45 | 1009.5 |
| 20260508201329 | 12 | 211 | 8.0 | 16.1 | 0.00 | 0.15 | 0.15 | 46 | 1009.4 |
| 20260508200829 | 12 | 283 | 8.0 | 16.1 | 0.00 | 0.15 | 0.15 | 46 | 1009.4 |
| 20260508200330 | 12 | 227 | 6.4 | 16.1 | 0.00 | 0.15 | 0.15 | 44 | 1009.5 |
| 20260508195830 | 12 | 268 | 6.4 | 16.1 | 0.00 | 0.15 | 0.15 | 45 | 1009.5 |
| 20260508195329 | 12 | 350 | 6.4 | 14.5 | 0.00 | 0.15 | 0.15 | 45 | 1009.5 |
| 20260508195100 | 12 | 229 | 6.4 | 16.1 | 0.00 | 0.15 | 0.15 | 45 | 1009.7 |
| 20260508194554 | 12 | 324 | 8.0 | 22.5 | 0.00 | 0.15 | 0.15 | 47 | 1009.8 |
| 20260508193828 | 12 | 349 | 9.7 | 22.5 | 0.00 | 0.15 | 0.15 | 46 | 1009.8 |
| 20260508193328 | 12 | 316 | 8.0 | 22.5 | 0.00 | 0.15 | 0.15 | 47 | 1009.9 |
| 20260508192828 | 12 | 287 | 4.8 | 20.9 | 0.00 | 0.15 | 0.15 | 45 | 1009.9 |
| 20260508192328 | 12 | 253 | 4.8 | 16.1 | 0.00 | 0.15 | 0.15 | 48 | 1010.0 |
| 20260508191828 | 11 | 299 | 6.4 | 16.1 | 0.00 | 0.15 | 0.15 | 50 | 1010.1 |
| 20260508191329 | 11 | 314 | 6.4 | 16.1 | 0.00 | 0.15 | 0.15 | 49 | 1010.1 |
| 20260508190828 | 12 | 339 | 6.4 | 16.1 | 0.00 | 0.15 | 0.15 | 49 | 1010.0 |
| 20260508190328 | 11 | 359 | 6.4 | 14.5 | 0.00 | 0.15 | 0.15 | 50 | 1010.0 |
| 20260508185828 | 11 | 287 | 8.0 | 16.1 | 0.00 | 0.15 | 0.15 | 50 | 1010.0 |
| 20260508185325 | 11 | 44 | 6.4 | 16.1 | 0.00 | 0.15 | 0.15 | 49 | 1010.0 |
| 20260508184825 | 11 | 238 | 6.4 | 14.5 | 0.00 | 0.15 | 0.15 | 50 | 1010.0 |
| 20260508184325 | 11 | 246 | 8.0 | 17.7 | 0.00 | 0.15 | 0.15 | 55 | 1010.1 |
| 20260508183825 | 12 | 0 | 6.4 | 17.7 | 0.00 | 0.15 | 0.15 | 53 | 1010.1 |
| 20260508183547 | 11 | 341 | 6.4 | 16.1 | 0.00 | 0.15 | 0.15 | 53 | 1010.1 |
| 20260508182825 | 11 | 15 | 6.4 | 16.1 | 0.00 | 0.15 | 0.15 | 55 | 1010.2 |
| 20260508182554 | 11 | 261 | 9.7 | 20.9 | 0.00 | 0.15 | 0.15 | 53 | 1010.3 |
| 20260508181826 | 10 | 313 | 9.7 | 20.9 | 0.00 | 0.15 | 0.15 | 53 | 1010.3 |
| 20260508181325 | 10 | 302 | 8.0 | 19.3 | 0.00 | 0.15 | 0.15 | 54 | 1010.3 |
| 20260508180825 | 10 | 253 | 8.0 | 16.1 | 0.00 | 0.15 | 0.15 | 53 | 1010.4 |
| 20260508180325 | 10 | 291 | 6.4 | 14.5 | 0.00 | 0.15 | 0.15 | 58 | 1010.5 |
| 20260508175822 | 10 | 282 | 6.4 | 16.1 | 0.00 | 0.15 | 0.15 | 53 | 1010.5 |
| 20260508175548 | 10 | 191 | 8.0 | 16.1 | 0.00 | 0.15 | 0.15 | 53 | 1010.6 |
| 20260508174819 | 10 | 236 | 9.7 | 16.1 | 0.00 | 0.15 | 0.15 | 58 | 1010.7 |
| 20260508174320 | 10 | 262 | 9.7 | 17.7 | 0.00 | 0.15 | 0.15 | 56 | 1010.7 |
| 20260508173820 | 10 | 283 | 8.0 | 17.7 | 0.00 | 0.15 | 0.15 | 55 | 1010.7 |
| 20260508173321 | 10 | 296 | 9.7 | 17.7 | 0.00 | 0.15 | 0.15 | 58 | 1010.7 |
| 20260508172820 | 10 | 322 | 9.7 | 17.7 | 0.00 | 0.15 | 0.15 | 58 | 1010.8 |
| 20260508172813 | 9 | 309 | 6.4 | 14.5 | 0.00 | 0.15 | 0.15 | 60 | 1010.8 |
| 20260508171820 | 9 | 264 | 6.4 | 14.5 | 0.00 | 0.15 | 0.15 | 61 | 1010.8 |
| 20260508171321 | 8 | 231 | 4.8 | 11.3 | 0.00 | 0.15 | 0.15 | 60 | 1010.8 |
| 20260508170820 | 8 | 308 | 6.4 | 12.9 | 0.00 | 0.15 | 0.15 | 64 | 1011.0 |
| 20260508170320 | 8 | 113 | 4.8 | 12.9 | 0.00 | 0.15 | 0.15 | 65 | 1011.0 |
| 20260508165818 | 8 | 227 | 6.4 | 16.1 | 0.00 | 0.15 | 0.15 | 66 | 1011.1 |
| 20260508165315 | 8 | 309 | 8.0 | 16.1 | 0.00 | 0.15 | 0.15 | 64 | 1011.2 |
| 20260508164816 | 8 | 347 | 8.0 | 14.5 | 0.00 | 0.15 | 0.15 | 64 | 1011.2 |
| 20260508164316 | 8 | 280 | 8.0 | 16.1 | 0.00 | 0.15 | 0.15 | 62 | 1011.2 |
| 20260508163820 | 8 | 249 | 8.0 | 16.1 | 0.00 | 0.15 | 0.15 | 69 | 1011.3 |
| 20260508163816 | 8 | 214 | 8.0 | 16.1 | 0.00 | 0.15 | 0.15 | 68 | 1011.2 |
| 20260508163041 | 8 | 241 | 8.0 | 17.7 | 0.00 | 0.15 | 0.15 | 67 | 1011.4 |
| 20260508162317 | 8 | 254 | 9.7 | 17.7 | 0.00 | 0.15 | 0.15 | 68 | 1011.3 |
| 20260508161816 | 8 | 258 | 9.7 | 20.9 | 0.00 | 0.15 | 0.15 | 67 | 1011.4 |
| 20260508161316 | 8 | 231 | 8.0 | 20.9 | 0.00 | 0.15 | 0.15 | 70 | 1011.4 |
| 20260508160817 | 8 | 349 | 8.0 | 20.9 | 0.00 | 0.15 | 0.15 | 71 | 1011.4 |
| 20260508160312 | 8 | 230 | 8.0 | 20.9 | 0.00 | 0.15 | 0.15 | 72 | 1011.4 |
| 20260508155811 | 8 | 247 | 6.4 | 14.5 | 0.00 | 0.15 | 0.15 | 74 | 1011.4 |
| 20260508155307 | 8 | 257 | 8.0 | 19.3 | 0.00 | 0.15 | 0.15 | 72 | 1011.3 |
| 20260508154807 | 7 | 238 | 8.0 | 19.3 | 0.00 | 0.15 | 0.15 | 73 | 1011.3 |
| 20260508154531 | 7 | 272 | 8.0 | 17.7 | 0.00 | 0.15 | 0.15 | 71 | 1011.3 |
| 20260508153806 | 7 | 13 | 8.0 | 17.7 | 0.00 | 0.15 | 0.15 | 76 | 1011.3 |
| 20260508153306 | 7 | 284 | 8.0 | 17.7 | 0.00 | 0.15 | 0.15 | 76 | 1011.3 |
| 20260508152807 | 7 | 246 | 6.4 | 16.1 | 0.00 | 0.15 | 0.15 | 77 | 1011.2 |
| 20260508152307 | 7 | 300 | 6.4 | 16.1 | 0.00 | 0.15 | 0.15 | 79 | 1011.1 |
| 20260508151807 | 7 | 279 | 6.4 | 14.5 | 0.00 | 0.15 | 0.15 | 80 | 1011.2 |
| 20260508151307 | 7 | 325 | 8.0 | 14.5 | 0.00 | 0.15 | 0.15 | 80 | 1011.3 |
| 20260508150807 | 6 | 234 | 8.0 | 16.1 | 0.00 | 0.15 | 0.15 | 81 | 1011.2 |
| 20260508150307 | 6 | 245 | 6.4 | 16.1 | 0.00 | 0.15 | 0.15 | 83 | 1011.2 |
| 20260508145806 | 6 | 284 | 6.4 | 14.5 | 0.00 | 0.15 | 0.15 | 83 | 1011.3 |
| 20260508145306 | 6 | 272 | 6.4 | 14.5 | 0.00 | 0.15 | 0.15 | 86 | 1011.3 |
| 20260508144803 | 6 | 265 | 6.4 | 14.5 | 0.00 | 0.15 | 0.15 | 85 | 1011.4 |
| 20260508144302 | 6 | 311 | 6.4 | 14.5 | 0.00 | 0.15 | 0.15 | 87 | 1011.5 |
| 20260508143802 | 5 | 267 | 6.4 | 14.5 | 0.00 | 0.15 | 0.15 | 90 | 1011.6 |
| 20260508143302 | 5 | 285 | 6.4 | 14.5 | 0.00 | 0.15 | 0.15 | 90 | 1011.6 |
| 20260508142802 | 5 | 295 | 4.8 | 11.3 | 0.00 | 0.15 | 0.15 | 91 | 1011.7 |
| 20260508142306 | 5 | 285 | 4.8 | 9.7 | 0.00 | 0.15 | 0.15 | 91 | 1011.6 |
| 20260508141802 | 5 | 252 | 4.8 | 11.3 | 0.00 | 0.15 | 0.15 | 92 | 1011.7 |
| 20260508141302 | 5 | 258 | 6.4 | 12.9 | 0.00 | 0.15 | 0.15 | 91 | 1011.7 |
| 20260508140802 | 5 | 253 | 6.4 | 12.9 | 0.00 | 0.15 | 0.15 | 91 | 1011.7 |
| 20260508140302 | 5 | 259 | 6.4 | 14.5 | 0.03 | 0.15 | 0.15 | 92 | 1011.6 |
| 20260508135759 | 5 | 272 | 6.4 | 14.5 | 0.03 | 0.15 | 0.15 | 92 | 1011.7 |
| 20260508135259 | 5 | 256 | 4.8 | 14.5 | 0.03 | 0.15 | 0.15 | 92 | 1011.7 |
| 20260508134801 | 5 | 93 | 4.8 | 14.5 | 0.03 | 0.15 | 0.15 | 92 | 1011.7 |
| 20260508134300 | 5 | 303 | 4.8 | 14.5 | 0.03 | 0.15 | 0.15 | 91 | 1011.6 |
| 20260508133800 | 5 | 293 | 6.4 | 12.9 | 0.03 | 0.15 | 0.15 | 92 | 1011.6 |
| 20260508133300 | 5 | 297 | 8.0 | 16.1 | 0.05 | 0.15 | 0.15 | 92 | 1011.6 |
| 20260508133236 | 5 | 19 | 9.7 | 17.7 | 0.05 | 0.15 | 0.15 | 92 | 1011.7 |
| 20260508132305 | 5 | 336 | 9.7 | 19.3 | 0.05 | 0.15 | 0.15 | 91 | 1011.6 |
| 20260508131802 | 5 | 323 | 8.0 | 19.3 | 0.05 | 0.15 | 0.15 | 90 | 1011.6 |
| 20260508131301 | 5 | 306 | 6.4 | 14.5 | 0.05 | 0.15 | 0.15 | 91 | 1011.6 |
| 20260508130802 | 5 | 333 | 6.4 | 17.7 | 0.05 | 0.15 | 0.15 | 92 | 1011.5 |
| 20260508130258 | 5 | 320 | 3.2 | 17.7 | 0.05 | 0.15 | 0.15 | 96 | 1011.5 |
| 20260508125756 | 5 | 22 | 3.2 | 6.4 | 0.05 | 0.13 | 0.13 | 96 | 1011.5 |
| 20260508125256 | 5 | 291 | 3.2 | 8.0 | 0.05 | 0.13 | 0.13 | 96 | 1011.4 |
| 20260508124753 | 5 | 228 | 3.2 | 8.0 | 0.05 | 0.13 | 0.13 | 97 | 1011.4 |
| 20260508124252 | 5 | 272 | 3.2 | 6.4 | 0.03 | 0.13 | 0.13 | 98 | 1011.3 |
| 20260508123752 | 5 | 327 | 3.2 | 6.4 | 0.03 | 0.13 | 0.13 | 100 | 1011.3 |
| 20260508123252 | 5 | 358 | 3.2 | 9.7 | 0.03 | 0.10 | 0.10 | 99 | 1011.2 |
| 20260508122752 | 5 | 302 | 3.2 | 9.7 | 0.00 | 0.10 | 0.10 | 99 | 1011.1 |
| 20260508122253 | 5 | 249 | 1.6 | 8.0 | 0.00 | 0.10 | 0.10 | 99 | 1010.9 |
| 20260508122020 | 5 | 286 | 1.6 | 4.8 | 0.00 | 0.10 | 0.10 | 99 | 1010.8 |
| 20260508121253 | 4 | 0 | 0.0 | 3.2 | 0.00 | 0.10 | 0.10 | 99 | 1010.7 |
| 20260508121017 | 4 | 0 | 0.0 | 3.2 | 0.00 | 0.10 | 0.10 | 99 | 1010.7 |
| 20260508120252 | 4 | 26 | 1.6 | 3.2 | 0.00 | 0.10 | 0.10 | 99 | 1010.6 |
| 20260508115753 | 4 | 0 | 0.0 | 3.2 | 0.00 | 0.10 | 0.10 | 99 | 1010.6 |
| 20260508115253 | 4 | 6 | 0.0 | 1.6 | 0.00 | 0.10 | 0.10 | 99 | 1010.6 |
| 20260508115018 | 4 | 0 | 0.0 | 1.6 | 0.00 | 0.10 | 0.10 | 99 | 1010.5 |
| 20260508114252 | 4 | 0 | 0.0 | 3.2 | 0.00 | 0.10 | 0.10 | 99 | 1010.4 |
| 20260508113754 | 3 | 0 | 0.0 | 3.2 | 0.00 | 0.10 | 0.10 | 99 | 1010.3 |
| 20260508113248 | 3 | 0 | 1.6 | 3.2 | 0.00 | 0.10 | 0.10 | 99 | 1010.3 |
| 20260508112748 | 3 | 215 | 1.6 | 3.2 | 0.00 | 0.10 | 0.10 | 99 | 1010.3 |
| 20260508112512 | 3 | 0 | 1.6 | 3.2 | 0.00 | 0.10 | 0.10 | 99 | 1010.3 |
| 20260508111747 | 3 | 312 | 0.0 | 3.2 | 0.00 | 0.10 | 0.10 | 99 | 1010.2 |
| 20260508111247 | 3 | 121 | 0.0 | 1.6 | 0.00 | 0.10 | 0.10 | 99 | 1010.2 |
| 20260508110747 | 3 | 0 | 0.0 | 1.6 | 0.00 | 0.10 | 0.10 | 99 | 1010.2 |
| 20260508110246 | 3 | 0 | 0.0 | 1.6 | 0.00 | 0.10 | 0.10 | 99 | 1010.2 |
| 20260508105747 | 3 | 0 | 0.0 | 3.2 | 0.00 | 0.10 | 0.10 | 99 | 1010.1 |
| 20260508105246 | 3 | 0 | 1.6 | 3.2 | 0.00 | 0.10 | 0.10 | 99 | 1009.8 |